Time,TemperatureF,DewpointF,PressureIn,WindDirection,WindDirectionDegrees,WindSpeedMPH,WindSpeedGustMPH,Humidity,HourlyPrecipIn,Conditions,Clouds,dailyrainin,SoftwareType,DateUTC
2013-06-18 00:02:00,59.2,55.6,30.04,ESE,113,0.0,0.0,88,0.00,,,0.02,meteohub,2013-06-17 23:02:00,
2013-06-18 00:07:00,59.0,55.4,30.04,ESE,113,0.0,0.0,88,0.00,,,0.00,meteohub,2013-06-17 23:07:00,
2013-06-18 00:12:00,58.8,55.2,30.04,ESE,113,0.0,0.0,88,0.00,,,0.00,meteohub,2013-06-17 23:12:00,
2013-06-18 00:17:00,59.2,55.6,30.04,ESE,113,0.0,0.0,88,0.00,,,0.00,meteohub,2013-06-17 23:17:00,
2013-06-18 00:22:00,58.8,55.2,30.04,ESE,113,0.0,0.0,88,0.00,,,0.00,meteohub,2013-06-17 23:22:00,
2013-06-18 00:27:00,58.6,55.0,30.04,ESE,113,0.0,0.0,88,0.00,,,0.00,meteohub,2013-06-17 23:27:00,
2013-06-18 00:32:00,58.5,54.9,30.04,ESE,113,0.0,0.0,88,0.00,,,0.00,meteohub,2013-06-17 23:32:00,
2013-06-18 00:37:00,58.3,55.0,30.04,ESE,113,0.0,0.0,89,0.00,,,0.00,meteohub,2013-06-17 23:37:00,
2013-06-18 00:42:00,57.7,54.5,30.03,ESE,113,0.0,0.0,89,0.00,,,0.00,meteohub,2013-06-17 23:42:00,
2013-06-18 00:47:00,57.6,54.3,30.03,ESE,113,0.0,0.0,89,0.00,,,0.00,meteohub,2013-06-17 23:47:00,
2013-06-18 00:52:00,57.4,54.5,30.03,ESE,113,0.0,0.0,90,0.00,,,0.00,meteohub,2013-06-17 23:52:00,
2013-06-18 00:57:00,57.0,54.1,30.03,ESE,113,0.0,0.0,90,0.00,,,0.00,meteohub,2013-06-17 23:57:00,
2013-06-18 01:02:00,57.0,54.1,30.03,ESE,113,0.0,0.0,90,0.00,,,0.00,meteohub,2013-06-18 00:02:00,
2013-06-18 01:07:00,57.0,54.5,30.03,ESE,113,0.0,1.0,91,0.00,,,0.00,meteohub,2013-06-18 00:07:00,
2013-06-18 01:12:00,56.8,54.3,30.03,ESE,113,0.0,1.0,91,0.00,,,0.00,meteohub,2013-06-18 00:12:00,
2013-06-18 01:17:00,56.7,54.1,30.03,ESE,113,0.0,1.0,91,0.00,,,0.00,meteohub,2013-06-18 00:17:00,
2013-06-18 01:22:00,56.7,54.1,30.02,ESE,113,0.0,1.0,91,0.00,,,0.00,meteohub,2013-06-18 00:22:00,
2013-06-18 01:27:00,56.5,54.0,30.02,ESE,113,0.0,1.0,91,0.00,,,0.00,meteohub,2013-06-18 00:27:00,
2013-06-18 01:32:00,56.1,53.8,30.02,ESE,113,0.0,0.0,92,0.00,,,0.00,meteohub,2013-06-18 00:32:00,
2013-06-18 01:37:00,55.9,53.6,30.02,ESE,113,0.0,0.0,92,0.00,,,0.00,meteohub,2013-06-18 00:37:00,
2013-06-18 01:42:00,55.6,53.2,30.02,ESE,113,0.0,0.0,92,0.00,,,0.00,meteohub,2013-06-18 00:42:00,
2013-06-18 01:47:00,55.2,52.9,30.02,ESE,113,0.0,0.0,92,0.00,,,0.00,meteohub,2013-06-18 00:47:00,
2013-06-18 01:52:00,55.0,52.7,30.02,ESE,113,0.0,0.0,92,0.00,,,0.00,meteohub,2013-06-18 00:52:00,
2013-06-18 01:57:00,55.2,53.2,30.01,ESE,113,0.0,0.0,93,0.00,,,0.00,meteohub,2013-06-18 00:57:00,
2013-06-18 02:02:00,55.0,53.1,30.01,ESE,113,0.0,0.0,93,0.00,,,0.00,meteohub,2013-06-18 01:02:00,
2013-06-18 02:07:00,54.9,52.5,30.01,ESE,113,0.0,0.0,92,0.00,,,0.00,meteohub,2013-06-18 01:07:00,
2013-06-18 02:12:00,54.3,52.0,30.01,ESE,113,0.0,0.0,92,0.00,,,0.00,meteohub,2013-06-18 01:12:00,
2013-06-18 02:17:00,54.0,52.0,30.01,ESE,113,0.0,0.0,93,0.00,,,0.00,meteohub,2013-06-18 01:17:00,
2013-06-18 02:22:00,53.8,51.8,30.01,ESE,113,2.0,2.0,93,0.00,,,0.00,meteohub,2013-06-18 01:22:00,
2013-06-18 02:27:00,53.4,51.4,30.01,ESE,113,0.0,4.0,93,0.00,,,0.00,meteohub,2013-06-18 01:27:00,
2013-06-18 02:32:00,53.2,51.3,30.02,ESE,113,0.0,4.0,93,0.00,,,0.00,meteohub,2013-06-18 01:32:00,
2013-06-18 02:37:00,53.2,51.3,30.02,ESE,113,0.0,4.0,93,0.00,,,0.00,meteohub,2013-06-18 01:37:00,
2013-06-18 02:42:00,53.1,51.1,30.02,ESE,113,0.0,0.0,93,0.00,,,0.00,meteohub,2013-06-18 01:42:00,
2013-06-18 02:47:00,53.1,51.4,30.02,ESE,113,0.0,0.0,94,0.00,,,0.00,meteohub,2013-06-18 01:47:00,
2013-06-18 02:52:00,52.9,51.3,30.01,ESE,113,0.0,0.0,94,0.00,,,0.00,meteohub,2013-06-18 01:52:00,
2013-06-18 02:57:00,52.7,51.1,30.01,ESE,113,0.0,0.0,94,0.00,,,0.00,meteohub,2013-06-18 01:57:00,
2013-06-18 03:02:00,52.5,50.9,30.01,ESE,113,0.0,0.0,94,0.00,,,0.00,meteohub,2013-06-18 02:02:00,
2013-06-18 03:07:00,52.3,50.7,30.01,ESE,113,0.0,0.0,94,0.00,,,0.00,meteohub,2013-06-18 02:07:00,
2013-06-18 03:12:00,52.3,50.7,30.01,ESE,113,0.0,0.0,94,0.00,,,0.00,meteohub,2013-06-18 02:12:00,
2013-06-18 03:17:00,52.2,50.5,30.01,ESE,113,0.0,0.0,94,0.00,,,0.00,meteohub,2013-06-18 02:17:00,
2013-06-18 03:22:00,51.6,50.0,30.01,ESE,113,0.0,0.0,94,0.00,,,0.00,meteohub,2013-06-18 02:22:00,
2013-06-18 03:27:00,51.6,50.0,30.01,ESE,113,0.0,1.0,94,0.00,,,0.00,meteohub,2013-06-18 02:27:00,
2013-06-18 03:32:00,51.6,50.0,30.01,ESE,113,0.0,1.0,94,0.00,,,0.00,meteohub,2013-06-18 02:32:00,
2013-06-18 03:37:00,51.6,50.0,30.01,ESE,113,0.0,1.0,94,0.00,,,0.00,meteohub,2013-06-18 02:37:00,
2013-06-18 03:42:00,51.8,50.2,30.01,ESE,113,0.0,1.0,94,0.00,,,0.00,meteohub,2013-06-18 02:42:00,
2013-06-18 03:47:00,51.6,50.0,30.01,ESE,113,0.0,1.0,94,0.00,,,0.00,meteohub,2013-06-18 02:47:00,
2013-06-18 03:52:00,51.4,49.8,30.00,ESE,113,0.0,1.0,94,0.00,,,0.00,meteohub,2013-06-18 02:52:00,
2013-06-18 03:57:00,51.3,49.6,30.00,ESE,113,0.0,2.0,94,0.00,,,0.00,meteohub,2013-06-18 02:57:00,
2013-06-18 04:02:00,51.1,49.5,30.00,ESE,113,0.0,2.0,94,0.00,,,0.00,meteohub,2013-06-18 03:02:00,
2013-06-18 04:07:00,51.1,49.5,30.01,ESE,113,0.0,2.0,94,0.00,,,0.00,meteohub,2013-06-18 03:07:00,
2013-06-18 04:12:00,51.1,49.5,30.01,ESE,113,0.0,1.0,94,0.00,,,0.00,meteohub,2013-06-18 03:12:00,
2013-06-18 04:17:00,51.1,49.5,30.01,ESE,113,0.0,0.0,94,0.00,,,0.00,meteohub,2013-06-18 03:17:00,
2013-06-18 04:22:00,50.9,49.3,30.00,ESE,113,0.0,1.0,94,0.00,,,0.00,meteohub,2013-06-18 03:22:00,
2013-06-18 04:27:00,50.7,49.1,30.01,ESE,113,0.0,2.0,94,0.00,,,0.00,meteohub,2013-06-18 03:27:00,
2013-06-18 04:32:00,50.7,49.1,30.00,ESE,113,1.0,2.0,94,0.00,,,0.00,meteohub,2013-06-18 03:32:00,
2013-06-18 04:37:00,50.5,48.9,30.00,ESE,113,0.0,2.0,94,0.00,,,0.00,meteohub,2013-06-18 03:37:00,
2013-06-18 04:42:00,50.5,48.9,30.00,ESE,113,0.0,2.0,94,0.00,,,0.00,meteohub,2013-06-18 03:42:00,
2013-06-18 04:47:00,50.4,48.7,30.00,ESE,113,0.0,2.0,94,0.00,,,0.00,meteohub,2013-06-18 03:47:00,
2013-06-18 04:52:00,50.4,48.7,30.00,ESE,113,0.0,2.0,94,0.00,,,0.00,meteohub,2013-06-18 03:52:00,
2013-06-18 04:57:00,50.4,48.7,30.00,ESE,113,0.0,1.0,94,0.00,,,0.00,meteohub,2013-06-18 03:57:00,
2013-06-18 05:02:00,50.4,48.7,30.00,ESE,113,0.0,1.0,94,0.00,,,0.00,meteohub,2013-06-18 04:02:00,
2013-06-18 05:07:00,50.5,49.1,30.00,ESE,113,0.0,0.0,95,0.00,,,0.00,meteohub,2013-06-18 04:07:00,
2013-06-18 05:12:00,50.5,49.1,30.00,ESE,113,0.0,0.0,95,0.00,,,0.00,meteohub,2013-06-18 04:12:00,
2013-06-18 05:17:00,50.7,49.3,30.00,ESE,113,0.0,0.0,95,0.00,,,0.00,meteohub,2013-06-18 04:17:00,
2013-06-18 05:22:00,51.1,49.6,30.00,ESE,113,0.0,2.0,95,0.00,,,0.00,meteohub,2013-06-18 04:22:00,
2013-06-18 05:27:00,51.3,49.8,30.00,ESE,113,1.0,2.0,95,0.00,,,0.00,meteohub,2013-06-18 04:27:00,
2013-06-18 05:32:00,51.4,50.0,30.00,ESE,113,0.0,2.0,95,0.00,,,0.00,meteohub,2013-06-18 04:32:00,
2013-06-18 05:37:00,51.4,50.0,30.00,ESE,113,0.0,1.0,95,0.00,,,0.00,meteohub,2013-06-18 04:37:00,
2013-06-18 05:42:00,51.4,50.0,30.00,ESE,113,0.0,2.0,95,0.00,,,0.00,meteohub,2013-06-18 04:42:00,
2013-06-18 05:47:00,51.6,50.2,30.00,ESE,113,0.0,2.0,95,0.00,,,0.00,meteohub,2013-06-18 04:47:00,
2013-06-18 05:52:00,51.6,50.2,30.00,ESE,113,0.0,2.0,95,0.00,,,0.00,meteohub,2013-06-18 04:52:00,
2013-06-18 05:57:00,51.8,50.2,30.00,ESE,113,0.0,1.0,94,0.00,,,0.00,meteohub,2013-06-18 04:57:00,
2013-06-18 06:02:00,52.0,50.5,30.00,ESE,113,0.0,1.0,95,0.00,,,0.00,meteohub,2013-06-18 05:02:00,
2013-06-18 06:07:00,52.2,50.5,30.00,ESE,113,0.0,1.0,94,0.00,,,0.00,meteohub,2013-06-18 05:07:00,
2013-06-18 06:12:00,52.0,50.4,30.00,ESE,113,0.0,1.0,94,0.00,,,0.00,meteohub,2013-06-18 05:12:00,
2013-06-18 06:17:00,52.0,50.4,30.00,ESE,113,0.0,0.0,94,0.00,,,0.00,meteohub,2013-06-18 05:17:00,
2013-06-18 06:22:00,51.8,50.2,30.00,ESE,113,0.0,0.0,94,0.00,,,0.00,meteohub,2013-06-18 05:22:00,
2013-06-18 06:27:00,51.6,50.0,30.00,ESE,113,0.0,0.0,94,0.00,,,0.00,meteohub,2013-06-18 05:27:00,
2013-06-18 06:32:00,51.4,49.8,30.00,ESE,113,0.0,0.0,94,0.00,,,0.00,meteohub,2013-06-18 05:32:00,
2013-06-18 06:37:00,51.4,49.8,30.00,ESE,113,0.0,0.0,94,0.00,,,0.00,meteohub,2013-06-18 05:37:00,
2013-06-18 06:42:00,51.3,49.6,30.00,ESE,113,0.0,1.0,94,0.00,,,0.00,meteohub,2013-06-18 05:42:00,
2013-06-18 06:47:00,51.1,49.5,30.00,ESE,113,0.0,1.0,94,0.00,,,0.00,meteohub,2013-06-18 05:47:00,
2013-06-18 06:52:00,51.3,49.6,30.00,ESE,113,0.0,1.0,94,0.00,,,0.00,meteohub,2013-06-18 05:52:00,
2013-06-18 06:57:00,51.4,49.8,30.00,ESE,113,0.0,1.0,94,0.00,,,0.00,meteohub,2013-06-18 05:57:00,
2013-06-18 07:02:00,51.6,50.0,30.00,ESE,113,0.0,1.0,94,0.00,,,0.00,meteohub,2013-06-18 06:02:00,
2013-06-18 07:07:00,52.2,50.7,30.00,ESE,113,1.0,1.0,95,0.00,,,0.00,meteohub,2013-06-18 06:07:00,
2013-06-18 07:12:00,52.3,50.9,30.00,ESE,113,1.0,1.0,95,0.00,,,0.00,meteohub,2013-06-18 06:12:00,
2013-06-18 07:17:00,52.9,51.4,30.00,ESE,113,0.0,2.0,95,0.00,,,0.00,meteohub,2013-06-18 06:17:00,
2013-06-18 07:22:00,53.2,51.8,30.00,ESE,113,1.0,2.0,95,0.00,,,0.00,meteohub,2013-06-18 06:22:00,
2013-06-18 07:27:00,53.6,52.2,30.00,ESE,113,0.0,2.0,95,0.00,,,0.00,meteohub,2013-06-18 06:27:00,
2013-06-18 07:32:00,54.0,52.5,30.00,ESE,113,1.0,2.0,95,0.00,,,0.00,meteohub,2013-06-18 06:32:00,
2013-06-18 07:37:00,54.3,52.7,30.00,ESE,113,0.0,2.0,94,0.00,,,0.00,meteohub,2013-06-18 06:37:00,
2013-06-18 07:42:00,54.7,53.1,30.00,SSE,154,1.0,2.0,94,0.00,,,0.00,meteohub,2013-06-18 06:42:00,
2013-06-18 07:47:00,55.2,53.6,30.00,South,173,0.0,5.0,94,0.00,,,0.00,meteohub,2013-06-18 06:47:00,
2013-06-18 07:52:00,55.6,54.0,30.00,South,173,0.0,5.0,94,0.00,,,0.00,meteohub,2013-06-18 06:52:00,
2013-06-18 07:57:00,55.9,54.3,29.99,South,173,0.0,5.0,94,0.00,,,0.00,meteohub,2013-06-18 06:57:00,
2013-06-18 08:02:00,56.7,55.0,30.00,South,182,1.0,5.0,94,0.00,,,0.00,meteohub,2013-06-18 07:02:00,
2013-06-18 08:07:00,57.4,55.6,30.00,WSW,238,1.0,5.0,94,0.00,,,0.00,meteohub,2013-06-18 07:07:00,
2013-06-18 08:12:00,57.4,55.4,30.00,West,259,1.0,6.0,93,0.00,,,0.00,meteohub,2013-06-18 07:12:00,
2013-06-18 08:17:00,57.6,55.0,30.00,SW,229,2.0,8.0,91,0.00,,,0.00,meteohub,2013-06-18 07:17:00,
2013-06-18 08:22:00,57.7,54.9,30.00,South,188,2.0,8.0,90,0.00,,,0.00,meteohub,2013-06-18 07:22:00,
2013-06-18 08:27:00,57.9,55.0,30.01,WSW,252,4.0,8.0,90,0.00,,,0.00,meteohub,2013-06-18 07:27:00,
2013-06-18 08:32:00,58.6,55.8,30.01,WSW,237,0.0,8.0,90,0.00,,,0.00,meteohub,2013-06-18 07:32:00,
2013-06-18 08:37:00,58.6,55.4,30.01,SW,232,0.0,8.0,89,0.00,,,0.00,meteohub,2013-06-18 07:37:00,
2013-06-18 08:42:00,58.8,55.6,30.01,WSW,238,0.0,6.0,89,0.00,,,0.00,meteohub,2013-06-18 07:42:00,
2013-06-18 08:47:00,59.0,55.8,30.01,WSW,238,2.0,6.0,89,0.00,,,0.00,meteohub,2013-06-18 07:47:00,
2013-06-18 08:52:00,59.4,55.8,30.01,SW,221,2.0,6.0,88,0.00,,,0.00,meteohub,2013-06-18 07:52:00,
2013-06-18 08:57:00,59.5,55.6,30.01,West,272,5.0,6.0,87,0.00,,,0.00,meteohub,2013-06-18 07:57:00,
2013-06-18 09:02:00,59.7,55.8,30.01,West,275,5.0,6.0,87,0.00,,,0.00,meteohub,2013-06-18 08:02:00,
2013-06-18 09:07:00,59.7,55.8,30.01,SSW,192,5.0,6.0,87,0.00,,,0.00,meteohub,2013-06-18 08:07:00,
2013-06-18 09:12:00,59.9,55.4,30.01,SSW,205,1.0,6.0,85,0.00,,,0.00,meteohub,2013-06-18 08:12:00,
2013-06-18 09:17:00,60.3,55.8,30.01,WSW,237,2.0,6.0,85,0.00,,,0.00,meteohub,2013-06-18 08:17:00,
2013-06-18 09:22:00,60.3,55.0,30.01,South,175,5.0,6.0,83,0.00,,,0.00,meteohub,2013-06-18 08:22:00,
2013-06-18 09:27:00,60.1,55.2,30.01,SW,229,2.0,6.0,84,0.00,,,0.00,meteohub,2013-06-18 08:27:00,
2013-06-18 09:32:00,60.1,55.2,30.01,West,265,2.0,6.0,84,0.00,,,0.00,meteohub,2013-06-18 08:32:00,
2013-06-18 09:37:00,60.3,55.0,30.01,West,267,5.0,6.0,83,0.00,,,0.00,meteohub,2013-06-18 08:37:00,
2013-06-18 09:42:00,60.1,54.9,30.01,WSW,255,0.0,8.0,83,0.00,,,0.00,meteohub,2013-06-18 08:42:00,
2013-06-18 09:47:00,59.9,54.7,30.01,WNW,286,1.0,8.0,83,0.00,,,0.00,meteohub,2013-06-18 08:47:00,
2013-06-18 09:52:00,60.3,54.7,30.01,SSW,207,2.0,8.0,82,0.00,,,0.00,meteohub,2013-06-18 08:52:00,
2013-06-18 09:57:00,61.0,55.8,30.01,West,264,0.0,8.0,83,0.00,,,0.00,meteohub,2013-06-18 08:57:00,
2013-06-18 10:02:00,61.0,55.8,30.01,WSW,239,5.0,9.0,83,0.00,,,0.00,meteohub,2013-06-18 09:02:00,
2013-06-18 10:07:00,60.4,55.2,30.01,West,273,4.0,9.0,83,0.00,,,0.00,meteohub,2013-06-18 09:07:00,
2013-06-18 10:12:00,60.1,55.2,30.01,WSW,254,5.0,9.0,84,0.00,,,0.00,meteohub,2013-06-18 09:12:00,
2013-06-18 10:17:00,60.3,55.4,30.01,West,265,2.0,9.0,84,0.00,,,0.00,meteohub,2013-06-18 09:17:00,
2013-06-18 10:22:00,60.4,55.6,30.01,WNW,298,1.0,9.0,84,0.00,,,0.00,meteohub,2013-06-18 09:22:00,
2013-06-18 10:27:00,61.0,55.8,30.01,WSW,245,4.0,9.0,83,0.00,,,0.00,meteohub,2013-06-18 09:27:00,
2013-06-18 10:32:00,61.5,55.9,30.01,SSW,207,8.0,10.0,82,0.00,,,0.00,meteohub,2013-06-18 09:32:00,
2013-06-18 10:37:00,62.2,56.3,30.01,SSW,200,1.0,10.0,81,0.00,,,0.00,meteohub,2013-06-18 09:37:00,
2013-06-18 10:42:00,62.1,55.0,30.01,South,180,2.0,10.0,78,0.00,,,0.00,meteohub,2013-06-18 09:42:00,
2013-06-18 10:47:00,61.5,54.7,30.01,SW,230,0.0,10.0,78,0.00,,,0.00,meteohub,2013-06-18 09:47:00,
2013-06-18 10:52:00,61.5,54.9,30.01,West,263,1.0,10.0,79,0.00,,,0.00,meteohub,2013-06-18 09:52:00,
2013-06-18 10:57:00,60.8,54.0,30.01,South,184,2.0,8.0,78,0.00,,,0.00,meteohub,2013-06-18 09:57:00,
2013-06-18 11:02:00,61.3,55.0,30.01,SW,232,2.0,8.0,80,0.00,,,0.00,meteohub,2013-06-18 10:02:00,
2013-06-18 11:07:00,61.9,54.9,30.01,SW,217,2.0,8.0,78,0.00,,,0.00,meteohub,2013-06-18 10:07:00,
2013-06-18 11:12:00,61.5,54.7,30.01,SW,223,1.0,8.0,78,0.00,,,0.00,meteohub,2013-06-18 10:12:00,
2013-06-18 11:17:00,62.1,55.4,30.01,SW,218,5.0,8.0,79,0.00,,,0.00,meteohub,2013-06-18 10:17:00,
2013-06-18 11:22:00,62.4,55.4,30.01,NNE,13,2.0,8.0,78,0.00,,,0.00,meteohub,2013-06-18 10:22:00,
2013-06-18 11:27:00,62.2,55.6,30.01,WSW,253,5.0,11.0,79,0.00,,,0.00,meteohub,2013-06-18 10:27:00,
2013-06-18 11:32:00,62.2,54.9,30.01,NNW,348,0.0,11.0,77,0.00,,,0.00,meteohub,2013-06-18 10:32:00,
2013-06-18 11:37:00,62.8,55.8,30.01,WSW,246,6.0,11.0,78,0.00,,,0.00,meteohub,2013-06-18 10:37:00,
2013-06-18 11:42:00,62.6,54.9,30.01,WNW,296,2.0,10.0,76,0.00,,,0.00,meteohub,2013-06-18 10:42:00,
2013-06-18 11:47:00,62.4,54.7,30.01,WSW,250,0.0,10.0,76,0.00,,,0.00,meteohub,2013-06-18 10:47:00,
2013-06-18 11:52:00,62.6,55.6,30.01,North,355,4.0,10.0,78,0.00,,,0.00,meteohub,2013-06-18 10:52:00,
2013-06-18 11:57:00,62.4,54.7,30.01,West,277,6.0,11.0,76,0.00,,,0.00,meteohub,2013-06-18 10:57:00,
2013-06-18 12:02:00,62.8,55.4,30.01,WNW,294,2.0,11.0,77,0.00,,,0.00,meteohub,2013-06-18 11:02:00,
2013-06-18 12:07:00,62.8,55.0,30.01,South,170,0.0,11.0,76,0.00,,,0.00,meteohub,2013-06-18 11:07:00,
2013-06-18 12:12:00,62.8,54.7,30.01,SW,232,1.0,11.0,75,0.00,,,0.00,meteohub,2013-06-18 11:12:00,
2013-06-18 12:17:00,62.8,54.7,30.01,West,263,1.0,11.0,75,0.00,,,0.00,meteohub,2013-06-18 11:17:00,
2013-06-18 12:22:00,63.7,55.2,30.00,South,171,11.0,11.0,74,0.00,,,0.00,meteohub,2013-06-18 11:22:00,
2013-06-18 12:27:00,63.7,55.6,30.01,WNW,300,5.0,11.0,75,0.00,,,0.00,meteohub,2013-06-18 11:27:00,
2013-06-18 12:32:00,63.7,54.9,30.01,SSW,192,4.0,11.0,73,0.00,,,0.00,meteohub,2013-06-18 11:32:00,
2013-06-18 12:37:00,63.0,54.5,30.01,WSW,243,4.0,11.0,74,0.00,,,0.00,meteohub,2013-06-18 11:37:00,
2013-06-18 12:42:00,63.7,55.9,30.01,NW,306,5.0,11.0,76,0.00,,,0.00,meteohub,2013-06-18 11:42:00,
2013-06-18 12:47:00,64.2,55.8,30.01,West,272,6.0,11.0,74,0.00,,,0.00,meteohub,2013-06-18 11:47:00,
2013-06-18 12:52:00,64.0,54.5,30.01,South,188,8.0,11.0,71,0.00,,,0.00,meteohub,2013-06-18 11:52:00,
2013-06-18 12:57:00,63.5,54.0,30.01,NW,308,1.0,11.0,71,0.00,,,0.00,meteohub,2013-06-18 11:57:00,
2013-06-18 13:02:00,63.7,54.9,30.01,SW,224,5.0,11.0,73,0.00,,,0.00,meteohub,2013-06-18 12:02:00,
2013-06-18 13:07:00,63.3,54.1,30.01,SW,235,4.0,13.0,72,0.00,,,0.00,meteohub,2013-06-18 12:07:00,
2013-06-18 13:12:00,63.0,54.1,30.01,WSW,250,1.0,13.0,73,0.00,,,0.00,meteohub,2013-06-18 12:12:00,
2013-06-18 13:17:00,63.9,55.0,30.01,WSW,255,5.0,13.0,73,0.00,,,0.00,meteohub,2013-06-18 12:17:00,
2013-06-18 13:22:00,63.5,55.4,30.01,SSW,207,2.0,10.0,75,0.00,,,0.00,meteohub,2013-06-18 12:22:00,
2013-06-18 13:27:00,63.1,55.0,30.01,WNW,286,0.0,10.0,75,0.00,,,0.00,meteohub,2013-06-18 12:27:00,
2013-06-18 13:32:00,63.3,55.2,30.02,SW,236,2.0,9.0,75,0.00,,,0.00,meteohub,2013-06-18 12:32:00,
2013-06-18 13:37:00,64.0,55.6,30.01,SW,231,6.0,10.0,74,0.00,,,0.00,meteohub,2013-06-18 12:37:00,
2013-06-18 13:42:00,64.9,56.1,30.02,SW,234,0.0,10.0,73,0.00,,,0.00,meteohub,2013-06-18 12:42:00,
2013-06-18 13:47:00,66.6,56.5,30.02,SW,216,2.0,10.0,70,0.00,,,0.00,meteohub,2013-06-18 12:47:00,
2013-06-18 13:52:00,66.7,57.4,30.02,South,184,6.0,10.0,72,0.00,,,0.00,meteohub,2013-06-18 12:52:00,
2013-06-18 13:57:00,67.5,56.1,30.02,WSW,241,2.0,10.0,67,0.00,,,0.00,meteohub,2013-06-18 12:57:00,
2013-06-18 14:02:00,65.8,55.4,30.02,West,274,5.0,14.0,69,0.00,,,0.00,meteohub,2013-06-18 13:02:00,
2013-06-18 14:07:00,65.7,55.6,30.02,WSW,241,9.0,14.0,70,0.00,,,0.00,meteohub,2013-06-18 13:07:00,
2013-06-18 14:12:00,65.1,55.0,30.02,WSW,248,5.0,15.0,70,0.00,,,0.00,meteohub,2013-06-18 13:12:00,
2013-06-18 14:17:00,65.1,55.9,30.02,SSW,207,4.0,15.0,72,0.00,,,0.00,meteohub,2013-06-18 13:17:00,
2013-06-18 14:22:00,66.2,56.1,30.02,SSW,200,6.0,15.0,70,0.00,,,0.00,meteohub,2013-06-18 13:22:00,
2013-06-18 14:27:00,66.2,56.5,30.02,NNW,340,2.0,10.0,71,0.00,,,0.00,meteohub,2013-06-18 13:27:00,
2013-06-18 14:32:00,65.7,56.3,30.02,SSE,168,2.0,13.0,72,0.00,,,0.00,meteohub,2013-06-18 13:32:00,
2013-06-18 14:37:00,65.8,57.4,30.02,SE,132,2.0,13.0,74,0.00,,,0.00,meteohub,2013-06-18 13:37:00,
2013-06-18 14:42:00,67.3,57.9,30.02,West,275,2.0,13.0,72,0.00,,,0.00,meteohub,2013-06-18 13:42:00,
2013-06-18 14:47:00,67.1,56.1,30.02,NW,307,8.0,15.0,68,0.00,,,0.00,meteohub,2013-06-18 13:47:00,
2013-06-18 14:52:00,65.8,54.5,30.02,SSW,213,4.0,15.0,67,0.00,,,0.00,meteohub,2013-06-18 13:52:00,
2013-06-18 14:57:00,65.5,55.8,30.02,WSW,254,1.0,15.0,71,0.00,,,0.00,meteohub,2013-06-18 13:57:00,
2013-06-18 15:02:00,66.0,55.9,30.02,SW,216,1.0,13.0,70,0.00,,,0.00,meteohub,2013-06-18 14:02:00,
2013-06-18 15:07:00,66.0,55.9,30.02,South,186,2.0,11.0,70,0.00,,,0.00,meteohub,2013-06-18 14:07:00,
2013-06-18 15:12:00,65.7,56.8,30.02,SSW,195,2.0,11.0,73,0.00,,,0.00,meteohub,2013-06-18 14:12:00,
2013-06-18 15:17:00,65.8,57.0,30.02,SW,229,5.0,13.0,73,0.00,,,0.00,meteohub,2013-06-18 14:17:00,
2013-06-18 15:22:00,64.2,56.1,30.02,WSW,238,6.0,13.0,75,0.00,,,0.00,meteohub,2013-06-18 14:22:00,
2013-06-18 15:27:00,63.9,55.8,30.02,SW,214,6.0,13.0,75,0.00,,,0.00,meteohub,2013-06-18 14:27:00,
2013-06-18 15:32:00,63.5,55.8,30.02,WSW,257,5.0,14.0,76,0.00,,,0.00,meteohub,2013-06-18 14:32:00,
2013-06-18 15:37:00,63.1,55.8,30.02,SSW,203,9.0,14.0,77,0.00,,,0.00,meteohub,2013-06-18 14:37:00,
2013-06-18 15:42:00,63.1,55.8,30.02,SW,215,2.0,14.0,77,0.00,,,0.00,meteohub,2013-06-18 14:42:00,
2013-06-18 15:47:00,63.0,56.3,30.02,WSW,244,5.0,11.0,79,0.00,,,0.00,meteohub,2013-06-18 14:47:00,
2013-06-18 15:52:00,63.3,57.0,30.02,WSW,245,6.0,11.0,80,0.00,,,0.00,meteohub,2013-06-18 14:52:00,
2013-06-18 15:57:00,63.3,57.0,30.02,West,261,4.0,11.0,80,0.00,,,0.00,meteohub,2013-06-18 14:57:00,
2013-06-18 16:02:00,63.1,56.5,30.02,WSW,241,5.0,10.0,79,0.00,,,0.00,meteohub,2013-06-18 15:02:00,
2013-06-18 16:07:00,63.0,56.7,30.02,WSW,255,1.0,10.0,80,0.00,,,0.00,meteohub,2013-06-18 15:07:00,
2013-06-18 16:12:00,62.4,56.5,30.02,NW,311,1.0,10.0,81,0.00,,,0.00,meteohub,2013-06-18 15:12:00,
2013-06-18 16:17:00,63.0,56.7,30.02,NW,313,2.0,11.0,80,0.00,,,0.00,meteohub,2013-06-18 15:17:00,
2013-06-18 16:22:00,63.0,57.0,30.02,WSW,239,0.0,11.0,81,0.00,,,0.00,meteohub,2013-06-18 15:22:00,
2013-06-18 16:27:00,63.0,56.7,30.02,WNW,297,4.0,13.0,80,0.00,,,0.00,meteohub,2013-06-18 15:27:00,
2013-06-18 16:32:00,62.8,56.5,30.02,North,10,2.0,13.0,80,0.00,,,0.00,meteohub,2013-06-18 15:32:00,
2013-06-18 16:37:00,62.4,56.1,30.02,West,271,6.0,13.0,80,0.00,,,0.00,meteohub,2013-06-18 15:37:00,
2013-06-18 16:42:00,62.2,55.9,30.02,West,261,6.0,11.0,80,0.00,,,0.00,meteohub,2013-06-18 15:42:00,
2013-06-18 16:47:00,62.8,56.8,30.02,WNW,294,4.0,11.0,81,0.00,,,0.00,meteohub,2013-06-18 15:47:00,
2013-06-18 16:52:00,62.4,56.1,30.02,West,259,6.0,11.0,80,0.00,,,0.00,meteohub,2013-06-18 15:52:00,
2013-06-18 16:57:00,62.8,56.1,30.02,WNW,292,2.0,11.0,79,0.00,,,0.00,meteohub,2013-06-18 15:57:00,
2013-06-18 17:02:00,64.0,58.1,30.02,WNW,294,2.0,11.0,81,0.00,,,0.00,meteohub,2013-06-18 16:02:00,
2013-06-18 17:07:00,64.6,56.8,30.02,SW,232,1.0,10.0,76,0.00,,,0.00,meteohub,2013-06-18 16:07:00,
2013-06-18 17:12:00,64.0,57.0,30.02,WSW,238,1.0,10.0,78,0.00,,,0.00,meteohub,2013-06-18 16:12:00,
2013-06-18 17:17:00,63.3,56.7,30.02,SE,134,1.0,9.0,79,0.00,,,0.00,meteohub,2013-06-18 16:17:00,
2013-06-18 17:22:00,63.0,56.7,30.02,SSW,213,0.0,9.0,80,0.00,,,0.00,meteohub,2013-06-18 16:22:00,
2013-06-18 17:27:00,63.0,56.7,30.02,NNW,340,0.0,10.0,80,0.00,,,0.00,meteohub,2013-06-18 16:27:00,
2013-06-18 17:32:00,62.6,56.3,30.02,SSW,207,1.0,10.0,80,0.00,,,0.00,meteohub,2013-06-18 16:32:00,
2013-06-18 17:37:00,64.0,57.0,30.02,WSW,238,0.0,10.0,78,0.00,,,0.00,meteohub,2013-06-18 16:37:00,
2013-06-18 17:42:00,64.0,56.3,30.02,South,186,1.0,9.0,76,0.00,,,0.00,meteohub,2013-06-18 16:42:00,
2013-06-18 17:47:00,63.9,56.1,30.02,SSW,200,0.0,6.0,76,0.00,,,0.00,meteohub,2013-06-18 16:47:00,
2013-06-18 17:52:00,63.9,56.5,30.02,West,273,2.0,8.0,77,0.00,,,0.00,meteohub,2013-06-18 16:52:00,
2013-06-18 17:57:00,63.5,56.1,30.02,SW,215,0.0,8.0,77,0.00,,,0.00,meteohub,2013-06-18 16:57:00,
2013-06-18 18:02:00,63.1,56.1,30.02,NNW,328,0.0,8.0,78,0.00,,,0.00,meteohub,2013-06-18 17:02:00,
2013-06-18 18:07:00,63.7,56.7,30.02,WSW,239,1.0,6.0,78,0.00,,,0.00,meteohub,2013-06-18 17:07:00,
2013-06-18 18:12:00,63.1,55.4,30.02,South,190,8.0,8.0,76,0.00,,,0.00,meteohub,2013-06-18 17:12:00,
2013-06-18 18:17:00,63.1,55.4,30.02,SSW,197,2.0,9.0,76,0.00,,,0.00,meteohub,2013-06-18 17:17:00,
2013-06-18 18:22:00,63.1,55.4,30.02,SW,224,0.0,9.0,76,0.00,,,0.00,meteohub,2013-06-18 17:22:00,
2013-06-18 18:27:00,63.3,55.9,30.02,WNW,286,2.0,9.0,77,0.00,,,0.00,meteohub,2013-06-18 17:27:00,
2013-06-18 18:32:00,63.3,54.5,30.02,West,276,1.0,8.0,73,0.00,,,0.00,meteohub,2013-06-18 17:32:00,
2013-06-18 18:37:00,63.1,54.0,30.01,WNW,300,1.0,6.0,72,0.00,,,0.00,meteohub,2013-06-18 17:37:00,
2013-06-18 18:42:00,63.1,54.0,30.02,West,273,4.0,6.0,72,0.00,,,0.00,meteohub,2013-06-18 17:42:00,
2013-06-18 18:47:00,63.0,54.1,30.02,SSW,213,2.0,13.0,73,0.00,,,0.00,meteohub,2013-06-18 17:47:00,
2013-06-18 18:52:00,62.8,54.0,30.02,NW,326,5.0,13.0,73,0.00,,,0.00,meteohub,2013-06-18 17:52:00,
2013-06-18 18:57:00,62.6,54.5,30.02,SW,215,4.0,13.0,75,0.00,,,0.00,meteohub,2013-06-18 17:57:00,
2013-06-18 19:02:00,62.4,54.3,30.02,NNW,348,2.0,9.0,75,0.00,,,0.00,meteohub,2013-06-18 18:02:00,
2013-06-18 19:07:00,62.2,54.5,30.02,WSW,255,0.0,9.0,76,0.00,,,0.00,meteohub,2013-06-18 18:07:00,
2013-06-18 19:12:00,61.9,54.3,30.02,NNW,327,2.0,9.0,76,0.00,,,0.00,meteohub,2013-06-18 18:12:00,
2013-06-18 19:17:00,61.9,54.3,30.02,WNW,290,1.0,9.0,76,0.00,,,0.00,meteohub,2013-06-18 18:17:00,
2013-06-18 19:22:00,61.7,54.1,30.03,NW,313,2.0,9.0,76,0.00,,,0.00,meteohub,2013-06-18 18:22:00,
2013-06-18 19:27:00,61.7,54.1,30.03,NW,313,2.0,9.0,76,0.00,,,0.00,meteohub,2013-06-18 18:27:00,
2013-06-18 19:32:00,61.5,54.0,30.03,WSW,255,1.0,9.0,76,0.00,,,0.00,meteohub,2013-06-18 18:32:00,
2013-06-18 19:37:00,61.5,54.0,30.03,NNW,332,4.0,10.0,76,0.00,,,0.00,meteohub,2013-06-18 18:37:00,
2013-06-18 19:42:00,61.3,53.8,30.03,WSW,237,2.0,13.0,76,0.00,,,0.00,meteohub,2013-06-18 18:42:00,
2013-06-18 19:47:00,61.3,54.5,30.03,SW,232,5.0,13.0,78,0.00,,,0.00,meteohub,2013-06-18 18:47:00,
2013-06-18 19:52:00,61.5,54.3,30.03,WSW,254,1.0,13.0,77,0.00,,,0.00,meteohub,2013-06-18 18:52:00,
2013-06-18 19:57:00,61.2,54.0,30.03,WNW,303,2.0,9.0,77,0.00,,,0.00,meteohub,2013-06-18 18:57:00,
2013-06-18 20:02:00,61.2,54.0,30.03,WNW,285,0.0,10.0,77,0.00,,,0.00,meteohub,2013-06-18 19:02:00,
2013-06-18 20:07:00,61.0,53.8,30.03,NW,312,1.0,10.0,77,0.00,,,0.00,meteohub,2013-06-18 19:07:00,
2013-06-18 20:12:00,60.8,53.6,30.04,WSW,240,5.0,10.0,77,0.00,,,0.00,meteohub,2013-06-18 19:12:00,
2013-06-18 20:17:00,60.6,53.8,30.04,NW,313,4.0,9.0,78,0.00,,,0.00,meteohub,2013-06-18 19:17:00,
2013-06-18 20:22:00,60.6,53.1,30.04,WNW,293,9.0,9.0,76,0.00,,,0.00,meteohub,2013-06-18 19:22:00,
2013-06-18 20:27:00,60.6,52.7,30.04,WNW,286,5.0,13.0,75,0.00,,,0.00,meteohub,2013-06-18 19:27:00,
2013-06-18 20:32:00,60.4,52.5,30.04,WNW,298,4.0,13.0,75,0.00,,,0.00,meteohub,2013-06-18 19:32:00,
2013-06-18 20:37:00,60.3,52.0,30.04,NW,306,9.0,13.0,74,0.00,,,0.00,meteohub,2013-06-18 19:37:00,
2013-06-18 20:42:00,60.3,51.6,30.04,WNW,285,5.0,10.0,73,0.00,,,0.00,meteohub,2013-06-18 19:42:00,
2013-06-18 20:47:00,60.1,51.8,30.04,WNW,288,4.0,10.0,74,0.00,,,0.00,meteohub,2013-06-18 19:47:00,
2013-06-18 20:52:00,60.1,51.8,30.04,WNW,287,4.0,10.0,74,0.00,,,0.00,meteohub,2013-06-18 19:52:00,
2013-06-18 20:57:00,60.1,51.4,30.04,WNW,300,2.0,9.0,73,0.00,,,0.00,meteohub,2013-06-18 19:57:00,
2013-06-18 21:02:00,60.1,51.1,30.05,WNW,300,4.0,8.0,72,0.00,,,0.00,meteohub,2013-06-18 20:02:00,
2013-06-18 21:07:00,59.7,50.7,30.05,NW,309,5.0,6.0,72,0.00,,,0.00,meteohub,2013-06-18 20:07:00,
2013-06-18 21:12:00,59.5,50.2,30.05,NNW,344,5.0,9.0,71,0.00,,,0.00,meteohub,2013-06-18 20:12:00,
2013-06-18 21:17:00,59.4,50.0,30.05,NNW,343,6.0,9.0,71,0.00,,,0.00,meteohub,2013-06-18 20:17:00,
2013-06-18 21:22:00,59.0,49.6,30.05,NNW,342,4.0,10.0,71,0.00,,,0.00,meteohub,2013-06-18 20:22:00,
2013-06-18 21:27:00,58.6,49.6,30.05,NNW,344,5.0,10.0,72,0.00,,,0.00,meteohub,2013-06-18 20:27:00,
2013-06-18 21:32:00,58.5,49.8,30.05,NNW,346,4.0,10.0,73,0.00,,,0.00,meteohub,2013-06-18 20:32:00,
2013-06-18 21:37:00,58.1,49.8,30.06,NNW,346,2.0,9.0,74,0.00,,,0.00,meteohub,2013-06-18 20:37:00,
2013-06-18 21:42:00,57.9,49.6,30.06,NNW,336,2.0,9.0,74,0.00,,,0.00,meteohub,2013-06-18 20:42:00,
2013-06-18 21:47:00,57.7,49.5,30.06,North,350,5.0,8.0,74,0.00,,,0.00,meteohub,2013-06-18 20:47:00,
2013-06-18 21:52:00,57.7,49.5,30.06,NNW,340,4.0,8.0,74,0.00,,,0.00,meteohub,2013-06-18 20:52:00,
2013-06-18 21:57:00,57.4,49.5,30.06,NNW,340,5.0,8.0,75,0.00,,,0.00,meteohub,2013-06-18 20:57:00,
2013-06-18 22:02:00,57.4,49.5,30.06,NNW,336,0.0,6.0,75,0.00,,,0.00,meteohub,2013-06-18 21:02:00,
2013-06-18 22:07:00,57.0,49.5,30.06,NNW,333,2.0,6.0,76,0.00,,,0.00,meteohub,2013-06-18 21:07:00,
2013-06-18 22:12:00,56.7,49.1,30.06,NNW,333,2.0,5.0,76,0.00,,,0.00,meteohub,2013-06-18 21:12:00,
2013-06-18 22:17:00,56.5,49.3,30.06,NW,323,2.0,5.0,77,0.00,,,0.00,meteohub,2013-06-18 21:17:00,
2013-06-18 22:22:00,56.5,49.3,30.06,WNW,293,5.0,5.0,77,0.00,,,0.00,meteohub,2013-06-18 21:22:00,
2013-06-18 22:27:00,56.3,49.1,30.06,WNW,293,1.0,6.0,77,0.00,,,0.00,meteohub,2013-06-18 21:27:00,
2013-06-18 22:32:00,56.3,49.1,30.07,WNW,293,1.0,6.0,77,0.00,,,0.00,meteohub,2013-06-18 21:32:00,
2013-06-18 22:37:00,56.1,49.3,30.06,WNW,293,4.0,6.0,78,0.00,,,0.00,meteohub,2013-06-18 21:37:00,
2013-06-18 22:42:00,55.9,49.1,30.07,WNW,294,1.0,5.0,78,0.00,,,0.00,meteohub,2013-06-18 21:42:00,
2013-06-18 22:47:00,55.8,48.9,30.07,NW,318,1.0,5.0,78,0.00,,,0.00,meteohub,2013-06-18 21:47:00,
2013-06-18 22:52:00,55.4,48.9,30.07,NW,318,4.0,5.0,79,0.00,,,0.00,meteohub,2013-06-18 21:52:00,
2013-06-18 22:57:00,55.2,48.7,30.07,NNW,330,2.0,5.0,79,0.00,,,0.00,meteohub,2013-06-18 21:57:00,
2013-06-18 23:02:00,55.0,48.6,30.07,NNW,329,2.0,5.0,79,0.00,,,0.00,meteohub,2013-06-18 22:02:00,
2013-06-18 23:07:00,54.7,48.4,30.07,NNW,327,1.0,5.0,79,0.00,,,0.00,meteohub,2013-06-18 22:07:00,
2013-06-18 23:12:00,54.5,48.4,30.07,NNW,327,4.0,5.0,80,0.00,,,0.00,meteohub,2013-06-18 22:12:00,
2013-06-18 23:17:00,54.3,48.6,30.07,NNW,327,4.0,5.0,81,0.00,,,0.00,meteohub,2013-06-18 22:17:00,
2013-06-18 23:22:00,54.1,48.4,30.06,NNW,327,2.0,6.0,81,0.00,,,0.00,meteohub,2013-06-18 22:22:00,
2013-06-18 23:27:00,54.0,48.6,30.07,NW,326,2.0,6.0,82,0.00,,,0.00,meteohub,2013-06-18 22:27:00,
2013-06-18 23:32:00,54.0,48.6,30.07,NW,326,1.0,6.0,82,0.00,,,0.00,meteohub,2013-06-18 22:32:00,
2013-06-18 23:37:00,54.0,48.6,30.07,NW,326,0.0,6.0,82,0.00,,,0.00,meteohub,2013-06-18 22:37:00,
2013-06-18 23:42:00,54.0,48.6,30.07,NW,326,2.0,5.0,82,0.00,,,0.00,meteohub,2013-06-18 22:42:00,
2013-06-18 23:47:00,54.0,48.6,30.07,NW,326,1.0,5.0,82,0.00,,,0.00,meteohub,2013-06-18 22:47:00,
2013-06-18 23:52:00,53.8,48.4,30.07,NW,326,1.0,5.0,82,0.00,,,0.00,meteohub,2013-06-18 22:52:00,
2013-06-18 23:57:00,53.6,48.2,30.07,NW,326,2.0,5.0,82,0.00,,,0.00,meteohub,2013-06-18 22:57:00,